Time,TemperatureF,DewpointF,PressureIn,WindDirection,WindDirectionDegrees,WindSpeedMPH,WindSpeedGustMPH,Humidity,HourlyPrecipIn,Conditions,Clouds,dailyrainin,SoftwareType,DateUTC
2013-03-06 00:01:00,50.5,45.2,29.82,South,176,3.0,18.0,82,0.01,,-RA,0.14,VWS V14.01,2013-03-06 08:01:00,
2013-03-06 00:06:00,50.5,45.2,29.82,South,169,4.0,17.0,82,0.00,,OVC027,0.00,VWS V14.01,2013-03-06 08:06:00,
2013-03-06 00:11:00,50.5,45.2,29.82,SSW,200,7.0,17.0,82,0.00,,OVC027,0.00,VWS V14.01,2013-03-06 08:11:00,
2013-03-06 00:16:00,50.4,45.4,29.82,SSE,153,6.0,17.0,83,0.00,,OVC027,0.00,VWS V14.01,2013-03-06 08:16:00,
2013-03-06 00:21:00,50.1,45.5,29.82,SW,218,8.0,17.0,84,0.00,,OVC027,0.00,VWS V14.01,2013-03-06 08:21:00,
2013-03-06 00:26:00,50.0,45.7,29.83,SSE,166,5.0,17.0,85,0.00,,OVC027,0.00,VWS V14.01,2013-03-06 08:26:00,
2013-03-06 00:31:00,50.1,45.5,29.82,South,180,10.0,17.0,84,0.00,,OVC027,0.00,VWS V14.01,2013-03-06 08:31:00,
2013-03-06 00:36:00,50.3,45.3,29.82,SE,127,3.0,18.0,83,0.00,,OVC027,0.00,VWS V14.01,2013-03-06 08:36:00,
2013-03-06 00:41:00,50.3,45.3,29.82,South,191,9.0,18.0,83,0.00,,OVC027,0.00,VWS V14.01,2013-03-06 08:41:00,
2013-03-06 00:46:00,50.4,45.4,29.82,South,173,10.0,18.0,83,0.00,,OVC027,0.00,VWS V14.01,2013-03-06 08:46:00,
2013-03-06 00:51:00,50.4,45.1,29.82,South,179,9.0,18.0,82,0.00,,OVC027,0.00,VWS V14.01,2013-03-06 08:51:00,
2013-03-06 00:56:00,50.5,45.2,29.82,SW,217,7.0,22.0,82,0.00,,OVC027,0.00,VWS V14.01,2013-03-06 08:56:00,
2013-03-06 01:01:00,50.5,45.2,29.82,SE,131,7.0,22.0,82,0.00,,OVC046,0.00,VWS V14.01,2013-03-06 09:01:00,
2013-03-06 01:06:00,50.5,45.2,29.82,South,188,7.0,19.0,82,0.00,,OVC046,0.00,VWS V14.01,2013-03-06 09:06:00,
2013-03-06 01:11:00,50.4,45.4,29.82,SW,214,13.0,25.0,83,0.00,,OVC046,0.00,VWS V14.01,2013-03-06 09:11:00,
2013-03-06 01:16:00,50.0,45.7,29.82,SSE,155,4.0,25.0,85,0.01,,OVC046,0.01,VWS V14.01,2013-03-06 09:16:00,
2013-03-06 01:21:00,49.7,46.0,29.83,South,171,11.0,25.0,87,0.01,,OVC046,0.01,VWS V14.01,2013-03-06 09:21:00,
2013-03-06 01:26:00,49.4,46.0,29.83,SSW,210,6.0,25.0,88,0.01,,OVC046,0.01,VWS V14.01,2013-03-06 09:26:00,
2013-03-06 01:31:00,49.4,46.0,29.83,South,187,6.0,25.0,88,0.02,,OVC046,0.02,VWS V14.01,2013-03-06 09:31:00,
2013-03-06 01:36:00,49.3,45.9,29.83,South,187,2.0,15.0,88,0.02,,OVC046,0.02,VWS V14.01,2013-03-06 09:36:00,
2013-03-06 01:41:00,49.4,46.0,29.83,SW,233,5.0,15.0,88,0.02,,OVC046,0.02,VWS V14.01,2013-03-06 09:41:00,
2013-03-06 01:46:00,49.4,46.0,29.83,SE,142,10.0,15.0,88,0.02,,OVC046,0.02,VWS V14.01,2013-03-06 09:46:00,
2013-03-06 01:51:00,49.5,46.1,29.83,South,190,9.0,15.0,88,0.03,,OVC046,0.03,VWS V14.01,2013-03-06 09:51:00,
2013-03-06 01:56:00,49.5,46.1,29.82,South,178,13.0,15.0,88,0.03,,OVC046,0.03,VWS V14.01,2013-03-06 09:56:00,
2013-03-06 02:01:00,49.5,46.1,29.83,SW,224,7.0,15.0,88,0.03,,OVC027,0.03,VWS V14.01,2013-03-06 10:01:00,
2013-03-06 02:06:00,49.4,46.0,29.83,SSE,148,11.0,18.0,88,0.03,,OVC027,0.03,VWS V14.01,2013-03-06 10:06:00,
2013-03-06 02:11:00,49.3,46.2,29.83,SSE,167,6.0,18.0,89,0.03,,OVC027,0.03,VWS V14.01,2013-03-06 10:11:00,
2013-03-06 02:16:00,49.1,46.3,29.83,SW,219,14.0,18.0,90,0.03,,OVC027,0.03,VWS V14.01,2013-03-06 10:16:00,
2013-03-06 02:21:00,49.0,46.2,29.83,South,173,9.0,18.0,90,0.03,,OVC027,0.03,VWS V14.01,2013-03-06 10:21:00,
2013-03-06 02:26:00,48.9,46.4,29.83,SSW,208,9.0,18.0,91,0.03,,OVC027,0.03,VWS V14.01,2013-03-06 10:26:00,
2013-03-06 02:31:00,48.9,46.4,29.83,South,188,9.0,18.0,91,0.04,,OVC027,0.04,VWS V14.01,2013-03-06 10:31:00,
2013-03-06 02:36:00,48.9,46.7,29.83,SW,214,7.0,15.0,92,0.02,,OVC027,0.04,VWS V14.01,2013-03-06 10:36:00,
2013-03-06 02:41:00,48.8,46.6,29.83,SSE,155,11.0,15.0,92,0.03,,OVC027,0.05,VWS V14.01,2013-03-06 10:41:00,
2013-03-06 02:46:00,48.8,46.6,29.83,SSW,197,5.0,15.0,92,0.03,,OVC027,0.05,VWS V14.01,2013-03-06 10:46:00,
2013-03-06 02:51:00,49.0,46.8,29.83,SW,214,8.0,15.0,92,0.03,,OVC027,0.05,VWS V14.01,2013-03-06 10:51:00,
2013-03-06 02:56:00,49.2,46.4,29.82,SW,226,8.0,15.0,90,0.03,,OVC027,0.05,VWS V14.01,2013-03-06 10:56:00,
2013-03-06 03:01:00,49.3,45.9,29.83,SSE,154,5.0,17.0,88,0.03,,-RA,0.05,VWS V14.01,2013-03-06 11:01:00,
2013-03-06 03:06:00,49.4,45.4,29.83,South,173,7.0,12.0,86,0.02,,-RA,0.05,VWS V14.01,2013-03-06 11:06:00,
2013-03-06 03:11:00,49.4,44.8,29.83,SSW,212,6.0,14.0,84,0.02,,-RA,0.05,VWS V14.01,2013-03-06 11:11:00,
2013-03-06 03:16:00,49.5,44.9,29.83,SSW,195,3.0,14.0,84,0.02,,-RA,0.05,VWS V14.01,2013-03-06 11:16:00,
2013-03-06 03:21:00,49.5,45.2,29.83,WSW,239,5.0,14.0,85,0.02,,-RA,0.05,VWS V14.01,2013-03-06 11:21:00,
2013-03-06 03:26:00,49.6,45.3,29.83,SSE,153,4.0,14.0,85,0.02,,-RA,0.05,VWS V14.01,2013-03-06 11:26:00,
2013-03-06 03:31:00,49.7,45.4,29.83,SE,143,8.0,14.0,85,0.02,,-RA,0.05,VWS V14.01,2013-03-06 11:31:00,
2013-03-06 03:36:00,49.9,45.3,29.83,South,176,5.0,17.0,84,0.01,,-RA,0.05,VWS V14.01,2013-03-06 11:36:00,
2013-03-06 03:41:00,50.1,45.5,29.83,SSW,207,8.0,17.0,84,0.01,,-RA,0.05,VWS V14.01,2013-03-06 11:41:00,
2013-03-06 03:46:00,50.3,45.7,29.83,SSW,193,7.0,17.0,84,0.01,,-RA,0.05,VWS V14.01,2013-03-06 11:46:00,
2013-03-06 03:51:00,50.3,45.7,29.83,SW,229,11.0,17.0,84,0.01,,-RA,0.05,VWS V14.01,2013-03-06 11:51:00,
2013-03-06 03:56:00,50.3,45.7,29.84,West,266,6.0,17.0,84,0.01,,-RA,0.05,VWS V14.01,2013-03-06 11:56:00,
2013-03-06 04:01:00,50.5,45.8,29.84,SW,236,15.0,15.0,84,0.00,,BKN048,0.05,VWS V14.01,2013-03-06 12:01:00,
2013-03-06 04:06:00,50.7,45.4,29.85,WNW,293,9.0,15.0,82,0.00,,BKN048,0.05,VWS V14.01,2013-03-06 12:06:00,
2013-03-06 04:11:00,50.3,43.4,29.85,NW,314,5.0,15.0,77,0.00,,BKN048,0.05,VWS V14.01,2013-03-06 12:11:00,
2013-03-06 04:16:00,49.9,43.3,29.85,South,176,5.0,15.0,78,0.00,,BKN048,0.05,VWS V14.01,2013-03-06 12:16:00,
2013-03-06 04:21:00,49.7,43.1,29.86,SSW,207,5.0,15.0,78,0.00,,BKN048,0.05,VWS V14.01,2013-03-06 12:21:00,
2013-03-06 04:26:00,49.5,42.9,29.86,SSE,156,8.0,15.0,78,0.00,,BKN048,0.05,VWS V14.01,2013-03-06 12:26:00,
2013-03-06 04:31:00,49.4,42.8,29.86,SSW,198,5.0,9.0,78,0.00,,BKN048,0.05,VWS V14.01,2013-03-06 12:31:00,
2013-03-06 04:36:00,49.3,42.7,29.85,East,98,4.0,14.0,78,0.00,,BKN048,0.05,VWS V14.01,2013-03-06 12:36:00,
2013-03-06 04:41:00,49.3,42.7,29.86,SW,229,3.0,14.0,78,0.00,,BKN048,0.05,VWS V14.01,2013-03-06 12:41:00,
2013-03-06 04:46:00,49.2,42.6,29.85,South,188,4.0,14.0,78,0.00,,BKN048,0.05,VWS V14.01,2013-03-06 12:46:00,
2013-03-06 04:51:00,49.3,42.7,29.87,East,97,3.0,14.0,78,0.00,,BKN048,0.05,VWS V14.01,2013-03-06 12:51:00,
2013-03-06 04:56:00,49.4,42.5,29.86,SW,224,6.0,18.0,77,0.00,,BKN048,0.05,VWS V14.01,2013-03-06 12:56:00,
2013-03-06 05:01:00,49.3,42.4,29.86,SW,221,7.0,9.0,77,0.00,,CLR,0.05,VWS V14.01,2013-03-06 13:01:00,
2013-03-06 05:06:00,49.4,42.5,29.86,SE,129,6.0,17.0,77,0.00,,CLR,0.05,VWS V14.01,2013-03-06 13:06:00,
2013-03-06 05:11:00,49.4,42.5,29.87,SSE,167,4.0,17.0,77,0.00,,CLR,0.05,VWS V14.01,2013-03-06 13:11:00,
2013-03-06 05:16:00,49.4,42.2,29.87,SSW,212,4.0,17.0,76,0.00,,CLR,0.05,VWS V14.01,2013-03-06 13:16:00,
2013-03-06 05:21:00,49.3,42.4,29.86,South,176,5.0,17.0,77,0.00,,CLR,0.05,VWS V14.01,2013-03-06 13:21:00,
2013-03-06 05:26:00,49.2,42.3,29.86,SW,219,11.0,17.0,77,0.00,,CLR,0.05,VWS V14.01,2013-03-06 13:26:00,
2013-03-06 05:31:00,49.1,42.2,29.86,SW,225,6.0,10.0,77,0.00,,CLR,0.05,VWS V14.01,2013-03-06 13:31:00,
2013-03-06 05:36:00,49.1,42.2,29.87,South,187,6.0,12.0,77,0.00,,CLR,0.05,VWS V14.01,2013-03-06 13:36:00,
2013-03-06 05:41:00,49.0,42.1,29.87,SSW,197,11.0,13.0,77,0.00,,CLR,0.05,VWS V14.01,2013-03-06 13:41:00,
2013-03-06 05:46:00,48.9,42.0,29.87,South,179,5.0,13.0,77,0.00,,CLR,0.05,VWS V14.01,2013-03-06 13:46:00,
2013-03-06 05:51:00,48.9,41.7,29.88,South,181,14.0,15.0,76,0.00,,CLR,0.05,VWS V14.01,2013-03-06 13:51:00,
2013-03-06 05:56:00,48.9,42.0,29.88,SE,146,2.0,15.0,77,0.00,,CLR,0.05,VWS V14.01,2013-03-06 13:56:00,
2013-03-06 06:01:00,48.8,41.9,29.88,SSE,152,5.0,5.0,77,0.00,,CLR,0.05,VWS V14.01,2013-03-06 14:01:00,
2013-03-06 06:06:00,48.8,41.6,29.89,WSW,257,7.0,20.0,76,0.00,,CLR,0.05,VWS V14.01,2013-03-06 14:06:00,
2013-03-06 06:11:00,48.7,41.5,29.89,SW,229,4.0,20.0,76,0.00,,CLR,0.05,VWS V14.01,2013-03-06 14:11:00,
2013-03-06 06:16:00,48.5,41.3,29.90,SW,222,7.0,20.0,76,0.00,,CLR,0.05,VWS V14.01,2013-03-06 14:16:00,
2013-03-06 06:21:00,48.4,41.5,29.91,West,280,4.0,20.0,77,0.00,,CLR,0.05,VWS V14.01,2013-03-06 14:21:00,
2013-03-06 06:26:00,48.3,41.4,29.91,West,267,8.0,20.0,77,0.00,,CLR,0.05,VWS V14.01,2013-03-06 14:26:00,
2013-03-06 06:31:00,48.2,41.3,29.92,WNW,284,0.0,3.0,77,0.00,,CLR,0.05,VWS V14.01,2013-03-06 14:31:00,
2013-03-06 06:36:00,48.2,41.0,29.92,SSW,204,5.0,17.0,76,0.00,,CLR,0.05,VWS V14.01,2013-03-06 14:36:00,
2013-03-06 06:41:00,48.2,41.0,29.92,SW,229,9.0,17.0,76,0.00,,CLR,0.05,VWS V14.01,2013-03-06 14:41:00,
2013-03-06 06:46:00,48.2,41.0,29.93,SSW,200,3.0,17.0,76,0.00,,CLR,0.05,VWS V14.01,2013-03-06 14:46:00,
2013-03-06 06:51:00,48.3,41.1,29.94,SSW,197,2.0,17.0,76,0.00,,CLR,0.05,VWS V14.01,2013-03-06 14:51:00,
2013-03-06 06:57:00,48.5,41.6,29.94,SW,215,0.0,17.0,77,0.00,,CLR,0.05,VWS V14.01,2013-03-06 14:57:00,
2013-03-06 07:02:00,48.5,42.0,29.94,South,179,3.0,3.0,78,0.00,,BKN028,0.05,VWS V14.01,2013-03-06 15:02:00,
2013-03-06 07:07:00,48.3,41.4,29.94,SW,221,4.0,7.0,77,0.00,,BKN028,0.05,VWS V14.01,2013-03-06 15:07:00,
2013-03-06 07:12:00,48.4,41.2,29.94,South,181,2.0,10.0,76,0.00,,BKN028,0.05,VWS V14.01,2013-03-06 15:12:00,
2013-03-06 07:17:00,48.4,41.2,29.94,SSE,148,4.0,10.0,76,0.00,,BKN028,0.05,VWS V14.01,2013-03-06 15:17:00,
2013-03-06 07:22:00,48.7,41.5,29.94,SSW,212,2.0,10.0,76,0.00,,BKN028,0.05,VWS V14.01,2013-03-06 15:22:00,
2013-03-06 07:27:00,49.1,41.9,29.95,SW,228,4.0,10.0,76,0.00,,BKN028,0.05,VWS V14.01,2013-03-06 15:27:00,
2013-03-06 07:32:00,49.3,41.4,29.95,South,180,2.0,4.0,74,0.00,,BKN028,0.05,VWS V14.01,2013-03-06 15:32:00,
2013-03-06 07:37:00,49.3,41.7,29.95,SSE,156,2.0,12.0,75,0.00,,BKN028,0.05,VWS V14.01,2013-03-06 15:37:00,
2013-03-06 07:42:00,49.3,41.7,29.96,ESE,115,1.0,12.0,75,0.00,,BKN028,0.05,VWS V14.01,2013-03-06 15:42:00,
2013-03-06 07:47:00,49.2,41.6,29.96,SSW,207,0.0,12.0,75,0.00,,BKN028,0.05,VWS V14.01,2013-03-06 15:47:00,
2013-03-06 07:52:00,49.1,41.2,29.96,WSW,238,0.0,12.0,74,0.00,,BKN028,0.05,VWS V14.01,2013-03-06 15:52:00,
2013-03-06 07:57:00,49.2,40.9,29.96,SSW,204,7.0,13.0,73,0.00,,BKN028,0.05,VWS V14.01,2013-03-06 15:57:00,
2013-03-06 08:02:00,49.3,41.4,29.97,South,172,0.0,2.0,74,0.00,,SCT028,0.05,VWS V14.01,2013-03-06 16:02:00,
2013-03-06 08:07:00,49.7,41.0,29.97,SSW,197,2.0,5.0,72,0.00,,SCT028,0.05,VWS V14.01,2013-03-06 16:07:00,
2013-03-06 08:12:00,50.5,40.7,29.97,SSE,153,0.0,5.0,69,0.00,,SCT028,0.05,VWS V14.01,2013-03-06 16:12:00,
2013-03-06 08:17:00,51.4,41.2,29.97,SE,140,1.0,5.0,68,0.00,,SCT028,0.05,VWS V14.01,2013-03-06 16:17:00,
2013-03-06 08:22:00,52.0,41.4,29.98,SE,143,1.0,5.0,67,0.00,,SCT028,0.05,VWS V14.01,2013-03-06 16:22:00,
2013-03-06 08:27:00,51.8,40.8,29.98,SSE,163,3.0,9.0,66,0.00,,SCT028,0.05,VWS V14.01,2013-03-06 16:27:00,
2013-03-06 08:32:00,51.8,40.8,29.99,SSE,161,0.0,1.0,66,0.00,,SCT028,0.05,VWS V14.01,2013-03-06 16:32:00,
2013-03-06 08:37:00,51.9,40.9,29.99,SSW,210,3.0,9.0,66,0.00,,SCT028,0.05,VWS V14.01,2013-03-06 16:37:00,
2013-03-06 08:42:00,52.4,41.4,29.99,SSW,200,10.0,10.0,66,0.00,,SCT028,0.05,VWS V14.01,2013-03-06 16:42:00,
2013-03-06 08:47:00,51.8,40.8,30.00,SSW,210,10.0,15.0,66,0.00,,SCT028,0.05,VWS V14.01,2013-03-06 16:47:00,
2013-03-06 08:52:00,51.6,40.6,29.99,South,184,1.0,15.0,66,0.00,,SCT028,0.05,VWS V14.01,2013-03-06 16:52:00,
2013-03-06 08:57:00,51.5,41.3,30.00,South,174,1.0,15.0,68,0.00,,SCT028,0.05,VWS V14.01,2013-03-06 16:57:00,
2013-03-06 09:02:00,51.4,41.2,30.00,SE,139,2.0,2.0,68,0.00,,BKN035,0.05,VWS V14.01,2013-03-06 17:02:00,
2013-03-06 09:07:00,51.3,40.7,30.00,SW,221,4.0,8.0,67,0.00,,BKN035,0.05,VWS V14.01,2013-03-06 17:07:00,
2013-03-06 09:12:00,51.3,40.7,30.00,South,184,4.0,9.0,67,0.00,,BKN035,0.05,VWS V14.01,2013-03-06 17:12:00,
2013-03-06 09:17:00,51.5,40.5,30.00,SW,226,8.0,9.0,66,0.00,,BKN035,0.05,VWS V14.01,2013-03-06 17:17:00,
2013-03-06 09:22:00,52.2,40.8,30.00,SSW,200,5.0,9.0,65,0.00,,BKN035,0.05,VWS V14.01,2013-03-06 17:22:00,
2013-03-06 09:27:00,53.0,41.6,30.00,SW,227,3.0,9.0,65,0.00,,BKN035,0.05,VWS V14.01,2013-03-06 17:27:00,
2013-03-06 09:32:00,53.9,42.8,30.00,SW,225,1.0,3.0,66,0.00,,BKN035,0.05,VWS V14.01,2013-03-06 17:32:00,
2013-03-06 09:37:00,54.7,42.4,30.01,SSE,150,1.0,10.0,63,0.00,,BKN035,0.05,VWS V14.01,2013-03-06 17:37:00,
2013-03-06 09:42:00,54.6,41.9,30.01,SSE,162,10.0,10.0,62,0.00,,BKN035,0.05,VWS V14.01,2013-03-06 17:42:00,
2013-03-06 09:47:00,54.1,41.0,30.01,WSW,242,5.0,15.0,61,0.00,,BKN035,0.05,VWS V14.01,2013-03-06 17:47:00,
2013-03-06 09:52:00,54.1,41.4,30.01,SSW,207,4.0,15.0,62,0.00,,BKN035,0.05,VWS V14.01,2013-03-06 17:52:00,
2013-03-06 09:57:00,54.3,41.2,30.01,ESE,111,5.0,15.0,61,0.00,,BKN035,0.05,VWS V14.01,2013-03-06 17:57:00,
2013-03-06 10:02:00,54.6,41.4,30.01,SE,124,3.0,6.0,61,0.00,,BKN048,0.05,VWS V14.01,2013-03-06 18:02:00,
2013-03-06 10:07:00,54.7,40.2,30.01,West,262,10.0,12.0,58,0.00,,BKN048,0.05,VWS V14.01,2013-03-06 18:07:00,
2013-03-06 10:12:00,54.8,41.2,30.02,SSE,153,2.0,12.0,60,0.00,,BKN048,0.05,VWS V14.01,2013-03-06 18:12:00,
2013-03-06 10:18:00,54.7,40.7,30.02,SW,235,3.0,12.0,59,0.00,,BKN048,0.05,VWS V14.01,2013-03-06 18:18:00,
2013-03-06 10:23:00,54.4,41.2,30.02,SSE,150,0.0,12.0,61,0.00,,BKN048,0.05,VWS V14.01,2013-03-06 18:23:00,
2013-03-06 10:28:00,54.5,41.3,30.02,WNW,288,2.0,12.0,61,0.00,,BKN048,0.05,VWS V14.01,2013-03-06 18:28:00,
2013-03-06 10:33:00,54.0,39.6,30.03,West,280,7.0,7.0,58,0.00,,BKN048,0.05,VWS V14.01,2013-03-06 18:33:00,
2013-03-06 10:38:00,53.9,40.3,30.03,SSW,197,3.0,7.0,60,0.00,,BKN048,0.05,VWS V14.01,2013-03-06 18:38:00,
2013-03-06 10:43:00,54.1,41.0,30.03,NW,314,0.0,7.0,61,0.00,,BKN048,0.05,VWS V14.01,2013-03-06 18:43:00,
2013-03-06 10:48:00,54.4,40.8,30.03,NE,38,1.0,7.0,60,0.00,,BKN048,0.05,VWS V14.01,2013-03-06 18:48:00,
2013-03-06 10:53:00,53.7,40.6,30.03,WNW,301,8.0,9.0,61,0.00,,BKN048,0.05,VWS V14.01,2013-03-06 18:53:00,
2013-03-06 10:58:00,53.0,42.0,30.03,ESE,118,0.0,9.0,66,0.00,,BKN048,0.05,VWS V14.01,2013-03-06 18:58:00,
2013-03-06 11:03:00,53.1,41.7,30.03,NW,321,3.0,5.0,65,0.00,,OVC048,0.05,VWS V14.01,2013-03-06 19:03:00,
2013-03-06 11:08:00,52.7,42.1,30.04,West,273,3.0,5.0,67,0.00,,OVC048,0.05,VWS V14.01,2013-03-06 19:08:00,
2013-03-06 11:13:00,52.2,42.7,30.04,WSW,243,3.0,7.0,70,0.00,,OVC048,0.05,VWS V14.01,2013-03-06 19:13:00,
2013-03-06 11:18:00,51.8,42.7,30.04,WSW,238,5.0,8.0,71,0.00,,OVC048,0.05,VWS V14.01,2013-03-06 19:18:00,
2013-03-06 11:23:00,51.0,43.0,30.04,SW,231,2.0,8.0,74,0.01,,OVC048,0.06,VWS V14.01,2013-03-06 19:23:00,
2013-03-06 11:28:00,50.2,42.6,30.04,WSW,257,4.0,11.0,75,0.04,,OVC048,0.09,VWS V14.01,2013-03-06 19:28:00,
2013-03-06 11:33:00,50.1,43.8,30.04,SW,214,1.0,3.0,79,0.04,,OVC048,0.09,VWS V14.01,2013-03-06 19:33:00,
2013-03-06 11:38:00,50.7,44.4,30.04,WSW,253,2.0,4.0,79,0.04,,OVC048,0.09,VWS V14.01,2013-03-06 19:38:00,
2013-03-06 11:43:00,51.2,45.2,30.04,SE,135,1.0,6.0,80,0.04,,OVC048,0.09,VWS V14.01,2013-03-06 19:43:00,
2013-03-06 11:48:00,51.7,43.7,30.04,SSW,208,3.0,10.0,74,0.04,,OVC048,0.09,VWS V14.01,2013-03-06 19:48:00,
2013-03-06 11:53:00,51.3,43.3,30.04,West,281,4.0,10.0,74,0.04,,OVC048,0.09,VWS V14.01,2013-03-06 19:53:00,
2013-03-06 11:58:00,51.1,43.1,30.04,WSW,255,6.0,10.0,74,0.04,,OVC048,0.09,VWS V14.01,2013-03-06 19:58:00,
2013-03-06 12:03:00,51.2,43.9,30.04,WSW,252,8.0,8.0,76,0.04,,BKN050,0.09,VWS V14.01,2013-03-06 20:03:00,
2013-03-06 12:08:00,51.0,43.0,30.05,West,277,4.0,11.0,74,0.04,,BKN050,0.09,VWS V14.01,2013-03-06 20:08:00,
2013-03-06 12:13:00,51.1,44.5,30.04,West,259,4.0,11.0,78,0.05,,BKN050,0.10,VWS V14.01,2013-03-06 20:13:00,
2013-03-06 12:18:00,51.4,44.8,30.04,NW,322,3.0,11.0,78,0.05,,BKN050,0.10,VWS V14.01,2013-03-06 20:18:00,
2013-03-06 12:23:00,52.1,44.8,30.04,East,80,1.0,11.0,76,0.05,,BKN050,0.10,VWS V14.01,2013-03-06 20:23:00,
2013-03-06 12:28:00,52.7,43.9,30.04,South,174,2.0,11.0,72,0.05,,BKN050,0.10,VWS V14.01,2013-03-06 20:28:00,
2013-03-06 12:33:00,53.0,43.9,30.04,ESE,108,1.0,3.0,71,0.01,,BKN050,0.10,VWS V14.01,2013-03-06 20:33:00,
2013-03-06 12:38:00,53.2,42.2,30.04,SSW,203,3.0,7.0,66,0.01,,BKN050,0.10,VWS V14.01,2013-03-06 20:38:00,
2013-03-06 12:43:00,53.6,42.1,30.04,SW,232,5.0,8.0,65,0.01,,BKN050,0.10,VWS V14.01,2013-03-06 20:43:00,
2013-03-06 12:48:00,53.7,42.6,30.04,WSW,239,1.0,8.0,66,0.01,,BKN050,0.10,VWS V14.01,2013-03-06 20:48:00,
2013-03-06 12:53:00,53.8,41.5,30.03,SW,219,6.0,8.0,63,0.01,,BKN050,0.10,VWS V14.01,2013-03-06 20:53:00,
2013-03-06 12:58:00,53.5,41.6,30.03,South,186,4.0,10.0,64,0.01,,BKN050,0.10,VWS V14.01,2013-03-06 20:58:00,
2013-03-06 13:03:00,53.6,41.7,30.03,South,176,3.0,7.0,64,0.01,,OVC055,0.10,VWS V14.01,2013-03-06 21:03:00,
2013-03-06 13:08:00,53.8,42.3,30.03,WSW,252,3.0,11.0,65,0.01,,OVC055,0.10,VWS V14.01,2013-03-06 21:08:00,
2013-03-06 13:13:00,54.0,42.1,30.03,SW,218,3.0,11.0,64,0.01,,OVC055,0.10,VWS V14.01,2013-03-06 21:13:00,
2013-03-06 13:18:00,54.3,42.8,30.03,SSW,210,3.0,11.0,65,0.01,,OVC055,0.10,VWS V14.01,2013-03-06 21:18:00,
2013-03-06 13:23:00,54.5,43.0,30.03,SSW,210,2.0,11.0,65,0.01,,OVC055,0.10,VWS V14.01,2013-03-06 21:23:00,
2013-03-06 13:28:00,54.7,42.8,30.02,South,187,3.0,11.0,64,0.01,,OVC055,0.10,VWS V14.01,2013-03-06 21:28:00,
2013-03-06 13:33:00,55.2,43.7,30.02,SW,221,3.0,5.0,65,0.00,,OVC055,0.10,VWS V14.01,2013-03-06 21:33:00,
2013-03-06 13:38:00,55.5,42.7,30.02,South,174,0.0,11.0,62,0.00,,OVC055,0.10,VWS V14.01,2013-03-06 21:38:00,
2013-03-06 13:43:00,55.5,43.1,30.02,SW,229,1.0,11.0,63,0.00,,OVC055,0.10,VWS V14.01,2013-03-06 21:43:00,
2013-03-06 13:48:00,55.5,42.7,30.03,SSW,198,4.0,11.0,62,0.00,,OVC055,0.10,VWS V14.01,2013-03-06 21:48:00,
2013-03-06 13:53:00,55.2,42.0,30.03,SSW,209,3.0,11.0,61,0.00,,OVC055,0.10,VWS V14.01,2013-03-06 21:53:00,
2013-03-06 13:58:00,54.6,42.3,30.03,South,190,8.0,13.0,63,0.00,,OVC055,0.10,VWS V14.01,2013-03-06 21:58:00,
2013-03-06 14:03:00,53.5,42.4,30.03,South,174,3.0,6.0,66,0.00,,BKN075,0.10,VWS V14.01,2013-03-06 22:03:00,
2013-03-06 14:09:00,53.2,43.7,30.03,South,184,6.0,6.0,70,0.00,,BKN075,0.10,VWS V14.01,2013-03-06 22:09:00,
2013-03-06 14:14:00,53.6,43.7,30.02,SE,135,0.0,6.0,69,0.00,,BKN075,0.10,VWS V14.01,2013-03-06 22:14:00,
2013-03-06 14:19:00,54.7,43.6,30.02,South,184,6.0,6.0,66,0.00,,BKN075,0.10,VWS V14.01,2013-03-06 22:19:00,
2013-03-06 14:24:00,55.7,42.5,30.02,SE,139,2.0,7.0,61,0.00,,BKN075,0.10,VWS V14.01,2013-03-06 22:24:00,
2013-03-06 14:29:00,56.1,41.5,30.02,SSW,201,5.0,10.0,58,0.00,,BKN075,0.10,VWS V14.01,2013-03-06 22:29:00,
2013-03-06 14:34:00,56.5,41.9,30.02,South,178,1.0,6.0,58,0.00,,BKN075,0.10,VWS V14.01,2013-03-06 22:34:00,
2013-03-06 14:39:00,56.5,40.5,30.02,South,187,4.0,9.0,55,0.00,,BKN075,0.10,VWS V14.01,2013-03-06 22:39:00,
2013-03-06 14:44:00,56.4,40.5,30.02,South,176,2.0,9.0,55,0.00,,BKN075,0.10,VWS V14.01,2013-03-06 22:44:00,
2013-03-06 14:49:00,56.6,39.7,30.02,South,186,4.0,9.0,53,0.00,,BKN075,0.10,VWS V14.01,2013-03-06 22:49:00,
2013-03-06 14:54:00,57.2,39.8,30.02,SW,225,5.0,9.0,52,0.00,,BKN075,0.10,VWS V14.01,2013-03-06 22:54:00,
2013-03-06 14:59:00,57.3,40.3,30.02,WSW,245,2.0,9.0,53,0.00,,BKN075,0.10,VWS V14.01,2013-03-06 22:59:00,
2013-03-06 15:04:00,57.0,40.5,30.02,SW,228,1.0,6.0,54,0.00,,FEW046,0.10,VWS V14.01,2013-03-06 23:04:00,
2013-03-06 15:09:00,57.1,39.7,30.02,South,181,4.0,7.0,52,0.00,,FEW046,0.10,VWS V14.01,2013-03-06 23:09:00,
2013-03-06 15:14:00,57.7,39.2,30.02,SSW,197,4.0,14.0,50,0.00,,FEW046,0.10,VWS V14.01,2013-03-06 23:14:00,
2013-03-06 15:19:00,58.0,39.5,30.02,South,177,4.0,14.0,50,0.00,,FEW046,0.10,VWS V14.01,2013-03-06 23:19:00,
2013-03-06 15:24:00,58.2,39.7,30.02,SW,221,3.0,14.0,50,0.00,,FEW046,0.10,VWS V14.01,2013-03-06 23:24:00,
2013-03-06 15:29:00,58.6,39.5,30.02,SW,231,3.0,14.0,49,0.00,,FEW046,0.10,VWS V14.01,2013-03-06 23:29:00,
2013-03-06 15:34:00,58.4,39.3,30.02,SW,236,2.0,8.0,49,0.00,,FEW046,0.10,VWS V14.01,2013-03-06 23:34:00,
2013-03-06 15:39:00,58.5,38.9,30.02,South,191,5.0,8.0,48,0.00,,FEW046,0.10,VWS V14.01,2013-03-06 23:39:00,
2013-03-06 15:44:00,58.2,38.1,30.02,SW,216,3.0,8.0,47,0.00,,FEW046,0.10,VWS V14.01,2013-03-06 23:44:00,
2013-03-06 15:49:00,57.9,37.8,30.02,SSW,207,4.0,12.0,47,0.00,,FEW046,0.10,VWS V14.01,2013-03-06 23:49:00,
2013-03-06 15:54:00,57.1,37.6,30.02,SSE,160,0.0,12.0,48,0.00,,FEW046,0.10,VWS V14.01,2013-03-06 23:54:00,
2013-03-06 15:59:00,56.6,38.2,30.02,South,180,5.0,12.0,50,0.00,,FEW046,0.10,VWS V14.01,2013-03-06 23:59:00,
2013-03-06 16:04:00,56.3,38.9,30.02,SW,218,3.0,8.0,52,0.00,,CLR,0.10,VWS V14.01,2013-03-07 00:04:00,
2013-03-06 16:09:00,56.8,38.9,30.02,South,191,1.0,8.0,51,0.00,,CLR,0.10,VWS V14.01,2013-03-07 00:09:00,
2013-03-06 16:14:00,57.5,39.5,30.02,SE,137,2.0,8.0,51,0.00,,CLR,0.10,VWS V14.01,2013-03-07 00:14:00,
2013-03-06 16:19:00,57.5,39.0,30.02,SSE,165,6.0,9.0,50,0.00,,CLR,0.10,VWS V14.01,2013-03-07 00:19:00,
2013-03-06 16:24:00,56.8,38.4,30.02,SW,235,4.0,11.0,50,0.00,,CLR,0.10,VWS V14.01,2013-03-07 00:24:00,
2013-03-06 16:29:00,56.3,38.9,30.02,SSW,207,2.0,11.0,52,0.00,,CLR,0.10,VWS V14.01,2013-03-07 00:29:00,
2013-03-06 16:34:00,55.9,38.5,30.02,South,176,2.0,5.0,52,0.00,,CLR,0.10,VWS V14.01,2013-03-07 00:34:00,
2013-03-06 16:39:00,55.7,38.4,30.02,SSE,165,1.0,5.0,52,0.00,,CLR,0.10,VWS V14.01,2013-03-07 00:39:00,
2013-03-06 16:44:00,55.6,39.2,30.02,South,172,0.0,5.0,54,0.00,,CLR,0.10,VWS V14.01,2013-03-07 00:44:00,
2013-03-06 16:49:00,55.1,38.8,30.02,NNW,340,2.0,6.0,54,0.00,,CLR,0.10,VWS V14.01,2013-03-07 00:49:00,
2013-03-06 16:54:00,55.0,39.2,30.02,South,181,0.0,6.0,55,0.00,,CLR,0.10,VWS V14.01,2013-03-07 00:54:00,
2013-03-06 16:59:00,55.3,38.5,30.02,West,274,6.0,7.0,53,0.00,,CLR,0.10,VWS V14.01,2013-03-07 00:59:00,
2013-03-06 17:04:00,55.3,39.0,30.02,WSW,243,3.0,5.0,54,0.00,,BKN047,0.10,VWS V14.01,2013-03-07 01:04:00,
2013-03-06 17:09:00,54.6,39.2,30.02,West,265,3.0,8.0,56,0.00,,BKN047,0.10,VWS V14.01,2013-03-07 01:09:00,
2013-03-06 17:14:00,54.1,39.2,30.02,West,266,3.0,8.0,57,0.00,,BKN047,0.10,VWS V14.01,2013-03-07 01:14:00,
2013-03-06 17:19:00,53.9,39.0,30.02,WSW,256,1.0,8.0,57,0.00,,BKN047,0.10,VWS V14.01,2013-03-07 01:19:00,
2013-03-06 17:24:00,53.8,39.4,30.02,WSW,238,6.0,8.0,58,0.00,,BKN047,0.10,VWS V14.01,2013-03-07 01:24:00,
2013-03-06 17:29:00,53.5,39.1,30.01,WSW,253,2.0,8.0,58,0.00,,BKN047,0.10,VWS V14.01,2013-03-07 01:29:00,
2013-03-06 17:34:00,53.4,39.5,30.01,WSW,249,2.0,6.0,59,0.00,,BKN047,0.10,VWS V14.01,2013-03-07 01:34:00,
2013-03-06 17:40:00,53.2,39.7,30.02,SSW,207,0.0,6.0,60,0.00,,BKN047,0.10,VWS V14.01,2013-03-07 01:40:00,
2013-03-06 17:44:00,52.9,39.8,30.02,West,278,4.0,6.0,61,0.00,,BKN047,0.10,VWS V14.01,2013-03-07 01:44:00,
2013-03-06 17:49:00,52.5,39.9,30.02,WSW,254,2.0,7.0,62,0.00,,BKN047,0.10,VWS V14.01,2013-03-07 01:49:00,
2013-03-06 17:55:00,52.2,39.6,30.02,WSW,243,4.0,7.0,62,0.00,,BKN047,0.10,VWS V14.01,2013-03-07 01:55:00,
2013-03-06 18:00:00,51.8,39.6,30.02,SW,229,3.0,7.0,63,0.00,,BKN047,0.10,VWS V14.01,2013-03-07 02:00:00,
2013-03-06 18:05:00,51.5,38.9,30.02,West,262,2.0,5.0,62,0.00,,SCT049,0.10,VWS V14.01,2013-03-07 02:05:00,
2013-03-06 18:10:00,51.2,39.0,30.02,NW,304,0.0,5.0,63,0.00,,SCT049,0.10,VWS V14.01,2013-03-07 02:10:00,
2013-03-06 18:15:00,50.9,39.2,30.02,SSE,158,0.0,5.0,64,0.00,,SCT049,0.10,VWS V14.01,2013-03-07 02:15:00,
2013-03-06 18:20:00,50.7,39.4,30.02,NW,307,1.0,5.0,65,0.00,,SCT049,0.10,VWS V14.01,2013-03-07 02:20:00,
2013-03-06 18:25:00,50.4,39.1,30.02,SW,229,0.0,5.0,65,0.00,,SCT049,0.10,VWS V14.01,2013-03-07 02:25:00,
2013-03-06 18:30:00,50.2,38.9,30.02,SSE,155,0.0,5.0,65,0.00,,SCT049,0.10,VWS V14.01,2013-03-07 02:30:00,
2013-03-06 18:35:00,50.0,38.7,30.02,WNW,287,1.0,1.0,65,0.00,,SCT049,0.10,VWS V14.01,2013-03-07 02:35:00,
2013-03-06 18:40:00,49.7,38.4,30.01,SSE,149,0.0,2.0,65,0.00,,SCT049,0.10,VWS V14.01,2013-03-07 02:40:00,
2013-03-06 18:45:00,49.6,38.3,30.01,West,262,1.0,5.0,65,0.00,,SCT049,0.10,VWS V14.01,2013-03-07 02:45:00,
2013-03-06 18:50:00,49.6,38.3,30.00,SW,229,0.0,5.0,65,0.00,,SCT049,0.10,VWS V14.01,2013-03-07 02:50:00,
2013-03-06 18:55:00,49.4,38.5,30.00,ESE,110,0.0,5.0,66,0.00,,SCT049,0.10,VWS V14.01,2013-03-07 02:55:00,
2013-03-06 19:00:00,49.2,38.3,30.01,WSW,245,0.0,5.0,66,0.00,,SCT049,0.10,VWS V14.01,2013-03-07 03:00:00,
2013-03-06 19:05:00,49.0,38.5,30.01,SW,235,0.0,1.0,67,0.00,,CLR,0.10,VWS V14.01,2013-03-07 03:05:00,
2013-03-06 19:10:00,48.9,38.4,30.01,West,270,0.0,2.0,67,0.00,,CLR,0.10,VWS V14.01,2013-03-07 03:10:00,
2013-03-06 19:15:00,48.9,38.4,30.00,WSW,246,0.0,3.0,67,0.00,,CLR,0.10,VWS V14.01,2013-03-07 03:15:00,
2013-03-06 19:20:00,48.6,38.5,30.01,SSW,207,1.0,3.0,68,0.00,,CLR,0.10,VWS V14.01,2013-03-07 03:20:00,
2013-03-06 19:25:00,48.4,38.7,30.01,West,281,2.0,3.0,69,0.00,,CLR,0.10,VWS V14.01,2013-03-07 03:25:00,
2013-03-06 19:30:00,48.3,38.6,30.01,West,270,0.0,3.0,69,0.00,,CLR,0.10,VWS V14.01,2013-03-07 03:30:00,
2013-03-06 19:35:00,48.2,38.5,30.01,SE,137,0.0,3.0,69,0.00,,CLR,0.10,VWS V14.01,2013-03-07 03:35:00,
2013-03-06 19:40:00,48.0,38.3,30.01,South,170,0.0,3.0,69,0.00,,CLR,0.10,VWS V14.01,2013-03-07 03:40:00,
2013-03-06 19:45:00,47.8,38.5,30.01,South,173,1.0,3.0,70,0.00,,CLR,0.10,VWS V14.01,2013-03-07 03:45:00,
2013-03-06 19:50:00,47.7,38.8,30.01,South,176,0.0,3.0,71,0.00,,CLR,0.10,VWS V14.01,2013-03-07 03:50:00,
2013-03-06 19:55:00,47.6,38.7,30.01,SSW,200,0.0,3.0,71,0.00,,CLR,0.10,VWS V14.01,2013-03-07 03:55:00,
2013-03-06 20:00:00,47.6,38.7,30.01,SSW,201,0.0,3.0,71,0.00,,CLR,0.10,VWS V14.01,2013-03-07 04:00:00,
2013-03-06 20:05:00,47.5,38.6,30.01,SSW,201,0.0,0.0,71,0.00,,CLR,0.10,VWS V14.01,2013-03-07 04:05:00,
2013-03-06 20:10:00,47.3,39.1,30.01,SSW,201,0.0,0.0,73,0.00,,CLR,0.10,VWS V14.01,2013-03-07 04:10:00,
2013-03-06 20:15:00,47.0,38.5,30.01,SSW,201,0.0,0.0,72,0.00,,CLR,0.10,VWS V14.01,2013-03-07 04:15:00,
2013-03-06 20:20:00,46.9,38.7,30.00,SW,221,0.0,1.0,73,0.00,,CLR,0.10,VWS V14.01,2013-03-07 04:20:00,
2013-03-06 20:25:00,46.8,38.6,30.01,SW,221,0.0,1.0,73,0.00,,CLR,0.10,VWS V14.01,2013-03-07 04:25:00,
2013-03-06 20:30:00,46.5,38.7,30.01,SW,221,0.0,1.0,74,0.00,,CLR,0.10,VWS V14.01,2013-03-07 04:30:00,
2013-03-06 20:35:00,46.4,38.9,30.01,SW,221,1.0,1.0,75,0.00,,CLR,0.10,VWS V14.01,2013-03-07 04:35:00,
2013-03-06 20:40:00,46.4,38.6,30.01,SW,221,0.0,1.0,74,0.00,,CLR,0.10,VWS V14.01,2013-03-07 04:40:00,
2013-03-06 20:45:00,46.3,38.5,30.01,SSW,212,0.0,1.0,74,0.00,,CLR,0.10,VWS V14.01,2013-03-07 04:45:00,
2013-03-06 20:50:00,46.4,38.6,30.01,SW,222,0.0,1.0,74,0.00,,CLR,0.10,VWS V14.01,2013-03-07 04:50:00,
2013-03-06 20:55:00,46.2,38.7,30.00,SW,222,0.0,1.0,75,0.00,,CLR,0.10,VWS V14.01,2013-03-07 04:55:00,
2013-03-06 21:00:00,46.0,38.9,30.00,WSW,256,0.0,1.0,76,0.00,,CLR,0.10,VWS V14.01,2013-03-07 05:00:00,
2013-03-06 21:05:00,45.9,38.8,30.00,WNW,284,0.0,1.0,76,0.00,,CLR,0.10,VWS V14.01,2013-03-07 05:05:00,
2013-03-06 21:10:00,45.9,38.8,30.00,WNW,284,0.0,1.0,76,0.00,,CLR,0.10,VWS V14.01,2013-03-07 05:10:00,
2013-03-06 21:15:00,45.7,38.6,30.01,SW,224,0.0,1.0,76,0.00,,CLR,0.10,VWS V14.01,2013-03-07 05:15:00,
2013-03-06 21:20:00,45.3,38.2,30.01,SW,224,0.0,1.0,76,0.00,,CLR,0.10,VWS V14.01,2013-03-07 05:20:00,
2013-03-06 21:25:00,45.0,38.2,30.01,SW,224,0.0,1.0,77,0.00,,CLR,0.10,VWS V14.01,2013-03-07 05:25:00,
2013-03-06 21:30:00,44.9,38.5,30.01,SW,224,0.0,1.0,78,0.00,,CLR,0.10,VWS V14.01,2013-03-07 05:30:00,
2013-03-06 21:35:00,44.7,38.6,30.01,SW,224,0.0,0.0,79,0.00,,CLR,0.10,VWS V14.01,2013-03-07 05:35:00,
2013-03-06 21:40:00,44.4,38.6,30.01,SW,224,0.0,0.0,80,0.00,,CLR,0.10,VWS V14.01,2013-03-07 05:40:00,
2013-03-06 21:45:00,44.3,38.5,30.01,SW,224,0.0,0.0,80,0.00,,CLR,0.10,VWS V14.01,2013-03-07 05:45:00,
2013-03-06 21:50:00,44.3,38.5,30.01,SW,224,0.0,0.0,80,0.00,,CLR,0.10,VWS V14.01,2013-03-07 05:50:00,
2013-03-06 21:55:00,44.1,38.7,30.00,SW,224,0.0,0.0,81,0.00,,CLR,0.10,VWS V14.01,2013-03-07 05:55:00,
2013-03-06 22:00:00,44.0,38.5,30.00,SW,224,0.0,0.0,81,0.00,,CLR,0.10,VWS V14.01,2013-03-07 06:00:00,
2013-03-06 22:06:00,43.9,38.5,30.00,SW,225,0.0,0.0,81,0.00,,CLR,0.10,VWS V14.01,2013-03-07 06:06:00,
2013-03-06 22:11:00,43.9,38.5,30.00,SW,225,0.0,0.0,81,0.00,,CLR,0.10,VWS V14.01,2013-03-07 06:11:00,
2013-03-06 22:16:00,43.9,38.5,30.00,SW,225,0.0,0.0,81,0.00,,CLR,0.10,VWS V14.01,2013-03-07 06:16:00,
2013-03-06 22:21:00,43.6,38.5,30.00,West,281,0.0,1.0,82,0.00,,CLR,0.10,VWS V14.01,2013-03-07 06:21:00,
2013-03-06 22:26:00,43.3,38.2,30.00,West,281,0.0,1.0,82,0.00,,CLR,0.10,VWS V14.01,2013-03-07 06:26:00,
2013-03-06 22:31:00,42.8,38.0,30.00,West,281,0.0,1.0,83,0.00,,CLR,0.10,VWS V14.01,2013-03-07 06:31:00,
2013-03-06 22:36:00,42.5,38.0,29.99,West,281,0.0,0.0,84,0.00,,CLR,0.10,VWS V14.01,2013-03-07 06:36:00,
2013-03-06 22:41:00,42.4,37.9,29.99,WSW,256,1.0,1.0,84,0.00,,CLR,0.10,VWS V14.01,2013-03-07 06:41:00,
2013-03-06 22:46:00,42.4,37.9,29.99,WSW,243,0.0,1.0,84,0.00,,CLR,0.10,VWS V14.01,2013-03-07 06:46:00,
2013-03-06 22:51:00,42.5,37.7,29.99,WSW,245,0.0,1.0,83,0.00,,CLR,0.10,VWS V14.01,2013-03-07 06:51:00,
2013-03-06 22:56:00,42.6,37.8,29.99,WSW,245,0.0,1.0,83,0.00,,CLR,0.10,VWS V14.01,2013-03-07 06:56:00,
2013-03-06 23:01:00,42.3,37.5,29.99,WSW,245,0.0,1.0,83,0.00,,FEW085,0.10,VWS V14.01,2013-03-07 07:01:00,
2013-03-06 23:06:00,41.9,37.4,29.99,WSW,245,0.0,0.0,84,0.00,,FEW085,0.10,VWS V14.01,2013-03-07 07:06:00,
2013-03-06 23:11:00,41.7,37.5,29.99,WSW,245,0.0,0.0,85,0.00,,FEW085,0.10,VWS V14.01,2013-03-07 07:11:00,
2013-03-06 23:16:00,41.3,37.1,29.99,WSW,245,0.0,0.0,85,0.00,,FEW085,0.10,VWS V14.01,2013-03-07 07:16:00,
2013-03-06 23:21:00,40.9,37.0,29.99,WSW,245,0.0,0.0,86,0.00,,FEW085,0.10,VWS V14.01,2013-03-07 07:21:00,
2013-03-06 23:26:00,40.9,37.0,29.99,WSW,245,0.0,0.0,86,0.00,,FEW085,0.10,VWS V14.01,2013-03-07 07:26:00,
2013-03-06 23:31:00,41.1,36.9,29.99,North,11,0.0,2.0,85,0.00,,FEW085,0.10,VWS V14.01,2013-03-07 07:31:00,
2013-03-06 23:36:00,40.8,36.7,29.99,North,3,0.0,1.0,85,0.00,,FEW085,0.10,VWS V14.01,2013-03-07 07:36:00,
2013-03-06 23:41:00,40.5,36.3,29.99,North,358,0.0,1.0,85,0.00,,FEW085,0.10,VWS V14.01,2013-03-07 07:41:00,
2013-03-06 23:46:00,40.3,36.5,29.99,North,356,0.0,1.0,86,0.00,,FEW085,0.10,VWS V14.01,2013-03-07 07:46:00,
2013-03-06 23:51:00,40.2,36.3,29.99,North,352,0.0,1.0,86,0.00,,FEW085,0.10,VWS V14.01,2013-03-07 07:51:00,
2013-03-06 23:56:00,40.1,36.3,29.99,North,350,1.0,1.0,86,0.00,,FEW085,0.10,VWS V14.01,2013-03-07 07:56:00,